San Francisco Weather Center

Moon Phase Calendar



Online Cameras

 


      

Current Conditions in San Francisco
11/26/2022 5:03:58 AM

50°F
Feels Like 48
Fog
Humidity
72%
Pressure
30.15"
Wind
5.8 mph (SSE)
Dew Point
41°F
UV Index
0/10 (Low)
Visibility
6 mi

Hourly Forecast

Date & Time Sat, Nov 26
5:00 AM
Sat, Nov 26
6:00 AM
Sat, Nov 26
7:00 AM
Sat, Nov 26
8:00 AM
Sat, Nov 26
9:00 AM
Sat, Nov 26
10:00 AM
Sat, Nov 26
11:00 AM
Sat, Nov 26
12:00 PM
Sat, Nov 26
1:00 PM
Sat, Nov 26
2:00 PM
Sat, Nov 26
3:00 PM
Sat, Nov 26
4:00 PM
Sat, Nov 26
5:00 PM
Sat, Nov 26
6:00 PM
Sat, Nov 26
7:00 PM
Sat, Nov 26
8:00 PM
Sat, Nov 26
9:00 PM
Sat, Nov 26
10:00 PM
Sat, Nov 26
11:00 PM
Sun, Nov 27
12:00 AM
Sun, Nov 27
1:00 AM
Sun, Nov 27
2:00 AM
Sun, Nov 27
3:00 AM
Sun, Nov 27
4:00 AM
Sun, Nov 27
5:00 AM
Sun, Nov 27
6:00 AM
Sun, Nov 27
7:00 AM
Sun, Nov 27
8:00 AM
Sun, Nov 27
9:00 AM
Sun, Nov 27
10:00 AM
Sun, Nov 27
11:00 AM
Sun, Nov 27
12:00 PM
Sun, Nov 27
1:00 PM
Sun, Nov 27
2:00 PM
Sun, Nov 27
3:00 PM
Sun, Nov 27
4:00 PM
Sun, Nov 27
5:00 PM
Sun, Nov 27
6:00 PM
Sun, Nov 27
7:00 PM
Sun, Nov 27
8:00 PM
Sun, Nov 27
9:00 PM
Sun, Nov 27
10:00 PM
Sun, Nov 27
11:00 PM
Mon, Nov 28
12:00 AM
Mon, Nov 28
1:00 AM
Mon, Nov 28
2:00 AM
Mon, Nov 28
3:00 AM
Mon, Nov 28
4:00 AM
Condition
Clouds

Clouds

Clouds

Clouds

Clouds

Clouds

Clear

Clear

Clear

Clear

Clear

Clear

Clear

Clear

Clear

Clear

Clear

Clear

Clear

Clear

Clear

Clear

Clear

Clear

Clear

Clear

Clear

Clear

Clouds

Clouds

Clouds

Clouds

Clouds

Clouds

Clouds

Clouds

Clouds

Clouds

Clouds

Clouds

Clouds

Clouds

Clouds

Clouds

Clouds

Clouds

Clouds

Clouds
Temperature 50°F51°F51°F52°F55°F57°F59°F60°F61°F62°F61°F60°F57°F56°F56°F55°F55°F55°F55°F55°F54°F54°F54°F53°F53°F53°F53°F54°F56°F57°F59°F59°F59°F59°F58°F56°F54°F54°F54°F53°F53°F53°F52°F52°F52°F52°F51°F51°F
Feels Like 50°F49°F49°F51°F53°F56°F57°F58°F59°F60°F59°F58°F55°F55°F54°F54°F53°F53°F53°F53°F52°F52°F52°F51°F51°F51°F51°F51°F53°F55°F57°F57°F58°F57°F57°F55°F53°F53°F52°F52°F52°F51°F51°F51°F50°F50°F50°F50°F
Cloudiness 40%52%64%76%74%70%0%0%0%0%0%0%0%0%0%0%0%0%0%0%0%0%0%0%3%6%6%7%17%26%12%20%46%60%68%73%100%100%100%89%86%88%32%29%41%56%61%53%
Visibility 6 mi6 mi6 mi6 mi6 mi6 mi6 mi6 mi6 mi6 mi6 mi6 mi6 mi6 mi6 mi6 mi6 mi6 mi6 mi6 mi6 mi6 mi6 mi6 mi6 mi6 mi6 mi6 mi6 mi6 mi6 mi6 mi6 mi6 mi6 mi6 mi6 mi6 mi6 mi6 mi6 mi6 mi6 mi6 mi6 mi6 mi6 mi6 mi
Precipitation 0%0%0%0%0%0%0%0%0%0%0%0%0%0%0%0%0%0%0%0%0%0%0%0%0%0%0%0%0%0%0%0%0%0%0%0%0%0%0%0%0%0%0%0%0%0%0%0%
Humidity 72%71%70%69%64%57%52%47%43%42%43%49%58%62%66%69%70%68%66%63%63%63%64%64%63%61%60%58%55%53%51%52%54%57%62%69%75%78%79%80%80%80%80%80%81%84%85%85%
Dew Point 41°F42°F42°F43°F43°F42°F41°F39°F37°F36°F37°F39°F42°F42°F44°F45°F45°F44°F43°F42°F41°F41°F41°F41°F41°F40°F39°F39°F39°F39°F40°F40°F42°F43°F45°F46°F46°F47°F47°F47°F47°F46°F46°F46°F46°F46°F47°F46°F
Pressure 30.15"30.15"30.18"30.18"30.18"30.18"30.18"30.15"30.12"30.12"30.09"30.09"30.09"30.09"30.09"30.12"30.12"30.12"30.12"30.09"30.09"30.09"30.09"30.09"30.09"30.09"30.09"30.09"30.09"30.09"30.09"30.09"30.06"30.03"30.03"30.03"30"30"30"30"30"30"29.97"29.97"29.97"29.97"29.94"29.94"
Wind Speed 1.4 mph1 mph2.4 mph1 mph1.3 mph2.2 mph2.4 mph3.6 mph4 mph6.1 mph5.9 mph6.8 mph5.6 mph5.8 mph5.3 mph4.7 mph3.4 mph2.1 mph1.9 mph1.5 mph1 mph1 mph1.1 mph0.9 mph1.4 mph3.1 mph3.2 mph3.6 mph2.7 mph1.3 mph1.3 mph2.2 mph2.7 mph4.3 mph6 mph8 mph6.8 mph5.8 mph6.8 mph5.8 mph4.2 mph4.2 mph4.5 mph5.2 mph6.4 mph9 mph11.1 mph11.3 mph
Wind
Direction
320°
NW
274°
W
316°
NW
343°
NNW
25°
NNE
44°
NE

N
359°
N
333°
NNW
318°
NW
313°
NW
294°
WNW
285°
WNW
289°
WNW
304°
NW
303°
WNW
315°
NW
325°
NW
36°
NE
66°
ENE
101°
E
323°
NW
28°
NNE
33°
NNE
118°
ESE
90°
E
101°
E
106°
ESE
123°
ESE
165°
SSE
239°
WSW
255°
WSW
248°
WSW
265°
W
266°
W
278°
W
277°
W
258°
WSW
247°
WSW
250°
WSW
265°
W
267°
W
289°
WNW
296°
WNW
288°
WNW
290°
WNW
299°
WNW
312°
NW

Daily Forecast

Date High Low Precip. Humidity
Today
Nov 26

Clear
62 °F
50 °F
0%
52%
Sunday
Nov 27

Clouds
59 °F
53 °F
0%
51%
Monday
Nov 28

Clouds
56 °F
50 °F
2%
73%
Tuesday
Nov 29

Clear
52 °F
44 °F
0%
48%
Wednesday
Nov 30

Clouds
53 °F
45 °F
0%
29%
Thursday
Dec 1

Rain
53 °F
47 °F
100%
70%
Friday
Dec 2

Rain
52 °F
46 °F
70%
67%
Saturday
Dec 3

Rain
53 °F
45 °F
93%
56%
Sunday
Dec 4

Rain
51 °F
48 °F
100%
75%
Monday
Dec 5

Clear
52 °F
44 °F
0%
50%
Tuesday
Dec 6

Clear
53 °F
44 °F
0%
49%
Wednesday
Dec 7

Clouds
54 °F
45 °F
0%
46%
Thursday
Dec 8

Clear
56 °F
46 °F
0%
43%
Friday
Dec 9

Clouds
56 °F
46 °F
0%
48%
Saturday
Dec 10

Clouds
55 °F
49 °F
0%
48%
Sunday
Dec 11

Clear
58 °F
47 °F
0%
43%

Temperature 8-14 Day Outlook



Precipitation 8-14 Day Outlook




Quick Links
San Francisco News
San Francisco Photos
San Francisco Videos




About Us
Contact Us
Site Map
Search Site
Advertise With Us
   
SanFrancisco.USCoast.info
THE SAN FRANCISCO WEBSITE

Copyright 2022, Coastal Town
Privacy    |    Legal